Flag for Russia Weather past 2 weeks in Saint-Petersburg, Russia

Now
57 °F

Sunny.


Feels Like: 55 °F
Forecast: 42 / 61 °F
Wind: 10 mph from Northwest

Location: St. Petersburg


UV Index: 0 (Low)

Visibility: 10 mi


Pressure: 30.30 "Hg

Humidity: 33%

Dew point: 28 °F

Location of Saint-PetersburgLocation

Historic Weather in Saint-Petersburg

°F

Saint-Petersburg temperature yesterday

Maximum temperature yesterday: 61 °F (at 4:00 PM)
Minimum temperature yesterday: 37 °F (at 7:30 AM)
Average temperature yesterday: 49 °F

Past Weeks' High & Low Weather Summary

 TemperatureHumidityPressure
High61 °F (Apr 18, 4:00 PM)100% (Apr 6, 7:30 PM)30.39 "Hg (Apr 6, 7:30 PM)
Low21 °F (Apr 9, 4:00 AM)20% (Apr 11, 4:30 PM)29.42 "Hg (Apr 14, 1:00 PM)
Average40 °F60%29.96 "Hg
* Reported Apr 4 1:00 PM — Apr 19 1:30 PM, Saint-Petersburg, Weather by CustomWeather, © 2014

Note: Actual official high and low records may vary slightly from our data, if they occured in-between our weather recording intervals... More about our weather records

Advertising

Historic Weather Conditions — Data for Previous 24 hours

 ConditionsComfort  
Time TempWeatherWind HumidityBarometerVisibility
1:30 PM
Apr 19
57 °FSunny.10 mph36%30.30 "Hg10 mi
1:00 PM57 °FSunny.10 mph33%30.30 "Hg10 mi
12:30 PM57 °FPassing clouds.8 mph33%30.30 "HgN/A
12:00 PM55 °FPassing clouds.8 mph36%30.30 "HgN/A
11:30 AM55 °FPassing clouds.8 mph36%30.30 "HgN/A
11:00 AM55 °FPassing clouds.6 mph36%30.30 "HgN/A
10:30 AM52 °FPassing clouds.6 mph44%30.30 "HgN/A
10:00 AM50 °FPassing clouds.6 mph54%30.27 "HgN/A
9:30 AM48 °FSunny.6 mph58%30.27 "Hg10 mi
9:00 AM46 °FSunny.6 mph62%30.27 "Hg10 mi
8:30 AM41 °FSunny.6 mph70%30.27 "Hg10 mi
8:00 AM37 °FSunny.No wind75%30.24 "Hg10 mi
7:30 AM36 °FClear.No wind75%30.24 "Hg4 mi
7:00 AM36 °FClear.No wind70%30.24 "Hg4 mi
6:30 AM34 °FClear.1 mph75%30.24 "Hg4 mi
6:00 AM34 °FClear.No wind81%30.24 "Hg4 mi
5:30 AM34 °FClear.No wind81%30.24 "Hg4 mi
5:00 AM36 °FClear.No wind75%30.24 "Hg4 mi
4:30 AM36 °FClear.1 mph75%30.24 "Hg4 mi
4:00 AM36 °FClear.3 mph75%30.24 "Hg4 mi
3:30 AM36 °FClear.1 mph75%30.21 "Hg10 mi
3:00 AM36 °FClear.1 mph75%30.21 "Hg10 mi
2:30 AM37 °FClear.No wind65%30.21 "Hg4 mi
2:00 AM39 °FClear.No wind61%30.18 "Hg5 mi
1:30 AM39 °FHaze.No wind61%30.18 "Hg3 mi
1:00 AM41 °FClear.No wind57%30.18 "Hg4 mi
12:30 AM41 °FHaze.No wind57%30.18 "Hg2 mi
12:00 AM41 °FHaze.1 mph57%30.15 "Hg1 mi
11:30 PM
Apr 18
43 °FClear.No wind53%30.15 "Hg5 mi
11:00 PM45 °FClear.1 mph49%30.15 "Hg4 mi
10:30 PM46 °FClear.1 mph46%30.12 "Hg10 mi
10:00 PM48 °FSunny.1 mph40%30.12 "Hg10 mi
9:30 PM50 °FSunny.1 mph35%30.09 "Hg10 mi
9:00 PM52 °FPassing clouds.3 mph35%30.09 "HgN/A
8:30 PM54 °FSunny.6 mph35%30.09 "Hg10 mi
8:00 PM55 °FSunny.8 mph31%30.09 "Hg10 mi
7:30 PM55 °FSunny.10 mph33%30.09 "Hg10 mi
7:00 PM57 °FSunny.8 mph31%30.07 "Hg10 mi
6:30 PM57 °FSunny.10 mph31%30.07 "Hg10 mi
6:00 PM61 °FPassing clouds.10 mph25%30.07 "HgN/A
5:30 PM61 °FPassing clouds.13 mph25%30.07 "HgN/A
5:00 PM61 °FPassing clouds.10 mph25%30.07 "HgN/A
4:30 PM61 °FPassing clouds.10 mph25%30.07 "HgN/A
4:00 PM61 °FPassing clouds.10 mph25%30.04 "HgN/A
3:30 PM59 °FSunny.13 mph27%30.04 "Hg10 mi
3:00 PM59 °FPassing clouds.13 mph29%30.04 "HgN/A
2:30 PM59 °FSunny.13 mph27%30.04 "Hg10 mi
2:00 PM59 °FPassing clouds.10 mph29%30.04 "HgN/A
Weather by CustomWeather, © 2014

See weather overview